Change the Weather History Date:

Tuesday, October 29, 2013

  Actual Average Record
Temperature  
Mean Temperature 32 °F -  
Max Temperature 34 °F 51 °F 75 °F (2006)
Min Temperature 30 °F 30 °F 19 °F (2014)
Degree Days  
Heating Degree Days 33    
Moisture  
Dew Point 31 °F    
Average Humidity 92    
Maximum Humidity 96    
Minimum Humidity 85    
Precipitation  
Precipitation 0.06 in - - ()
Sea Level Pressure  
Sea Level Pressure 30.20 in    
Wind  
Wind Speed 10 mph (NE)    
Max Wind Speed 14 mph    
Max Gust Speed -    
Averages and records for this station are not official NWS values.
T = Trace of Precipitation, MM = Missing Value Source: NWS Daily Summary

Daily Weather History Graph

Daily Weather History Graph

Search for Another Location

Airport or City:

Trip Planner

Search our weather history database for the weather conditions in past years. The results will help you decide how hot, cold, wet, or windy it might be!

Date:

Astronomy

Oct. 29, 2013 Rise Set
Actual Time 8:09 AM CDT 6:31 PM CDT
Civil Twilight 7:39 AM CDT 7:01 PM CDT
Nautical Twilight 7:06 AM CDT 7:35 PM CDT
Astronomical Twilight 6:32 AM CDT 8:08 PM CDT
Moon 2:51 AM CDT (10/29) 3:54 PM CDT (10/29)
Length of Visible Light 11h 21m
Length of Day
10h 21m
Waning Crescent, 25% of the Moon is Illuminated
Oct 29
Waning Crescent
Nov 3
New
Nov 9
First Quarter
Nov 17
Full
Nov 25
Last Quarter

Hourly Weather History & Observations

Time (CDT) Temp. Windchill Dew Point Humidity Pressure Visibility Wind Dir Wind Speed Gust Speed Precip Events Conditions
12:52 AM 33.1 °F 24.9 °F 28.9 °F 85% 30.34 in - NE 10.4 mph - N/A   Unknown
1:52 AM 32.0 °F 22.1 °F 30.0 °F 92% 30.33 in - ENE 13.8 mph - 0.02 in   Unknown
2:52 AM 32.0 °F 22.1 °F 28.9 °F 88% 30.31 in - ENE 13.8 mph - 0.01 in   Unknown
3:52 AM 32.0 °F 22.1 °F 30.0 °F 92% 30.29 in - ENE 13.8 mph - N/A   Unknown
4:52 AM 32.0 °F 22.5 °F 28.9 °F 88% 30.27 in - ENE 12.7 mph - 0.01 in   Unknown
5:52 AM 32.0 °F 22.1 °F 28.9 °F 88% 30.26 in - East 13.8 mph - N/A   Unknown
6:52 AM 30.9 °F 22.2 °F 28.9 °F 92% 30.24 in - East 10.4 mph - N/A   Unknown
7:52 AM 32.0 °F 24.2 °F 30.0 °F 92% 30.23 in - East 9.2 mph - N/A   Unknown
8:52 AM 32.0 °F 25.6 °F 30.0 °F 92% 30.22 in - East 6.9 mph - 0.01 in   Unknown
9:52 AM 32.0 °F 26.4 °F 30.0 °F 92% 30.22 in - ENE 5.8 mph - 0.01 in   Unknown
10:52 AM 33.1 °F 26.1 °F 30.9 °F 92% 30.21 in - ENE 8.1 mph - N/A   Unknown
11:52 AM 33.1 °F 27.7 °F 30.9 °F 92% 30.20 in - NE 5.8 mph - N/A   Unknown
12:52 PM 33.1 °F 27.7 °F 30.9 °F 92% 30.20 in - NE 5.8 mph - N/A   Unknown
1:52 PM 34.0 °F 28.0 °F 30.9 °F 89% 30.16 in - NE 6.9 mph - N/A   Unknown
2:52 PM 34.0 °F 26.0 °F 32.0 °F 92% 30.12 in - NE 10.4 mph - N/A   Unknown
3:52 PM 34.0 °F 28.0 °F 32.0 °F 92% 30.12 in - NE 6.9 mph - N/A   Unknown
4:52 PM 33.1 °F 26.9 °F 30.9 °F 92% 30.11 in - NE 6.9 mph - N/A   Unknown
5:52 PM 33.1 °F 28.7 °F 30.9 °F 92% 30.11 in - NE 4.6 mph - N/A   Unknown
6:52 PM 33.1 °F 28.7 °F 32.0 °F 96% 30.13 in - NNE 4.6 mph - N/A   Unknown
7:52 PM 33.1 °F 27.7 °F 32.0 °F 96% 30.13 in - NNE 5.8 mph - N/A   Unknown
8:52 PM 34.0 °F 29.8 °F 32.0 °F 92% 30.14 in - NNE 4.6 mph - N/A   Unknown
9:52 PM 33.1 °F 30.0 °F 32.0 °F 96% 30.12 in - NNE 3.5 mph - N/A   Unknown
10:52 PM 33.1 °F 27.7 °F 32.0 °F 96% 30.14 in - NW 5.8 mph - N/A   Unknown
11:52 PM 33.1 °F 27.7 °F 32.0 °F 96% 30.12 in - NNW 5.8 mph - N/A   Unknown